COSMOS 2251 DEB

Satellite information

Favourite Embed

Satellite Type and Status

DEBRISIN ORBIT

Key statistics

Satellite COSMOS 2251 DEB at a glance.

Uptime

11869

Days in orbit

Revolutions

≈ 14.4

Per day

Orbit

LEO

Low Earth Orbit

Inclination

74.1

Latest

Satellite identification and parameters

Extended collection of information and parameters for COSMOS 2251 DEB.

Object identification

Identified? True

Debris? True

Object name: COSMOS 2251 DEB

International designator: 1993-036RX

Object number (NORAD): 34430

Object ID (CCSDS): 34430

Country: COMMONWEALTH OF INDEPENDENT STATES (CIS)

Current information (Y/N): Y

RCS size: SMALL

Orbital parameters

Period: 100.025 minutes

Inclination: 74.0522 deg

SMA: 7137.836 km

Apoapsis: 802.79 km

Periapsis: 716.613 km

RAAN: 302.3016 deg

Eccentricy: 0.00603665

Argument of periapsis: 11.7984 deg

Mean anomaly: 348.4568 deg

Mean motion: 14.39636678 rev/day

Mean motion (dot): 0.00002705 rev/day2

B* drag term: 0.00085503332 1/REarth

Two-line elements (TLE)

Creation date: Dec. 13, 2025, 5:47 p.m.

Reference frame: TEME

Reference center: EARTH

Epoch: Dec. 13, 2025, 7:32 a.m. UTC

TLE line 0: 0 COSMOS 2251 DEB

TLE line 1: 1 34430U 93036RX 25347.31451806 .00002705 00000-0 85503-3 0 9992

TLE line 2: 2 34430 74.0522 302.3016 0060366 11.7984 348.4568 14.39636678879636

Live tracking on map

Real-time ground track for satellite COSMOS 2251 DEB.

In-orbit conjunctions

A list of the most updated potential collisions computed for object COSMOS 2251 DEB.

Target Orbit TCA Probability of collision Miss distance Type
CZ-6A DEB LEO 2025-02-04 21:58:19 0.000229717 260.0 (m) DEBRIS
NOAA 16 DEB SSO 2024-11-12 10:18:39 0.0002807707 411.0 (m) DEBRIS

Associated space launch

Military communications satellite. Destroyed in a collision with Iridium 33.

COSMOS 2251 DEB was lifted into orbit during the mission ‘Kosmos-3M | Strela-2M 51’, on board a Kosmos-3M space rocket.

The launch took place on June 16, 1993, 4:17 a.m. from 132/1 (132L).

For more information about the launch, click the button.

Launch to space Kosmos-3M | Strela-2M 51
Kosmos-3M | Strela-2M 51

Agency: N/A

Status: Launch Successful

Launch date: June 16, 1993, 4:17 a.m. UTC

Rocket: Kosmos-3M

Launch pad: 132/1 (132L)

Location: Plesetsk Cosmodrome, Russian Federation

...

Latest news about this satellite

There are no fresh news available about this satellite. Check back as we update our databases every day.


Newsletter sign-up

Weekly statistics, charts and insights to help you stay on top of the space industry.